Location: Little Walsingham
(52.8833°N, 0.8833°E)
Time: 15:56:31
(UTC+00:00)

Daily predictions for brighter satellites

Satellite Brightness Start Highest point End
(mag) Time Altitude Azimuth Time Altitude Azimuth Time Altitude Azimuth
IKONOS-2 4.5 21:08:24 10° NNE 21:12:34 71° ESE 21:16:42 10° S
Cosmos 1633 Rocket 3.7 21:08:26 10° NNW 21:12:40 55° W 21:16:52 10° S
Cosmos 1802 Rocket 4.2 21:07:32 10° N 21:14:00 73° ENE 21:20:24 10° SSE
IRS-1C Rocket 4.3 21:10:15 10° SSE 21:15:30 77° WSW 21:20:48 10° NNW
Spot 2 Rocket 4.0 21:10:56 10° S 21:15:57 62° WSW 21:21:01 10° NNW
Okean-O 4.0 21:13:44 10° SSW 21:17:46 35° W 21:21:48 10° NNW
SL-16 R/B 2.3 21:15:53 10° NNW 21:21:35 89° WSW 21:27:15 10° SSE
ERS-1 Rocket 4.4 21:18:43 10° SSW 21:23:17 34° W 21:27:51 10° NNW
Cosmos 2084 Rocket 3.8 21:19:18 10° NW 21:23:21 51° SW 21:27:21 10° SSE
Meteor 1-13 Rocket 4.4 21:18:00 10° S 21:23:55 76° E 21:29:47 10° NNE
USA 290 3.8 21:24:27 10° SSE 21:26:46 19° ESE 21:29:06 10° ENE
Helios 1A 3.9 21:23:10 10° N 21:27:00 48° WNW 21:30:47 10° SW
Cosmos 1328 Rocket 4.3 21:23:14 10° SSW 21:27:33 57° WNW 21:31:55 10° N
Cosmos 2227 Rocket 2.2 21:23:01 10° SSW 21:28:38 74° ESE 21:34:18 10° NE
Cosmos 1455 3.6 21:27:04 10° NW 21:29:15 21° W 21:31:25 10° SW
Cosmos 2344 4.1 21:21:46 10° NW 21:29:23 68° NE 21:39:23 10° ESE
Cosmos 2016 Rocket 4.1 21:24:02 10° N 21:30:25 79° E 21:36:47 10° SSE
Cosmos 2263 Rocket 2.6 21:26:09 10° S 21:31:30 44° ESE 21:36:52 10° NE
Cosmos 1437 Rocket 2.5 21:29:33 10° S 21:33:02 64° E 21:36:37 10° NNE
Meteor 1-23 Rocket 4.4 21:27:41 10° S 21:33:07 58° E 21:38:39 10° NNE
NOSS 3 (A) 4.2 21:31:33 10° NW 21:33:53 74° SW 21:36:46 11° SE
Cosmos 1470 Rocket 4.3 21:30:07 10° NNW 21:34:19 51° W 21:38:32 10° S
RESURS DK-1 2.4 21:31:05 10° SSW 21:35:01 56° ESE 21:38:57 10° NE
GP-B 3.5 21:33:38 10° N 21:37:54 48° E 21:42:07 10° SSE
Cosmos 1943 3.7 21:36:19 10° NNW 21:41:57 56° NE 21:47:33 10° SE
Cosmos 1933 Rocket 3.7 21:41:04 10° NNW 21:45:29 78° W 21:49:50 10° S
Cosmos 1892 4.5 21:44:48 10° ESE 21:45:50 11° E 21:46:52 10° ENE
COSMOS 2455 4.3 21:42:52 10° NW 21:47:52 28° WSW 21:52:52 10° SSW
NOSS 3-1 (C) 4.1 21:42:15 10° NW 21:48:58 75° NE 21:57:26 10° SE
Cosmos 1140 Rocket 4.2 21:45:03 10° SSE 21:49:40 35° ESE 21:54:18 10° NE
Okean 3 4.3 21:49:00 12° SSE 21:52:20 32° E 21:56:00 10° NNE
SL-4 R/B 3.2 21:51:04 10° SSW 21:54:11 21° SE 21:57:15 10° E
Cosmos 2219 3.4 21:49:56 10° S 21:55:32 57° ESE 22:01:10 10° NE
Cosmos 1733 Rocket 3.9 21:51:26 10° N 21:55:35 40° ENE 21:59:17 12° SE
Cosmos 1515 Rocket 4.0 21:51:17 10° SSW 21:55:41 65° WNW 22:00:07 10° N
Cosmos 2292 Rocket 4.1 21:56:22 13° SE 21:58:07 22° E 22:00:27 10° NE
USA 59 Rocket 1.3 21:55:39 10° NNW 21:58:28 27° NNE 22:01:51 10° E
Cosmos 1869 Rocket 3.6 21:55:27 10° NNW 21:59:52 83° W 22:03:55 12° S
Cosmos 1603 4.5 21:55:14 10° NNW 22:00:38 46° NE 22:06:02 10° ESE
Cosmos 1703 4.3 21:59:19 13° SE 22:01:37 25° E 22:04:33 10° NE
ALOS 2 4.3 21:58:34 10° ESE 22:02:01 23° ENE 22:05:29 10° N
Cosmos 2082 4.0 21:58:45 10° S 22:04:15 51° ESE 22:09:48 10° NE
Cosmos 1953 2.2 22:02:04 10° NNW 22:05:51 81° W 22:09:05 13° S
Cosmos 2233 Rocket 4.1 22:01:14 10° NNW 22:07:35 82° W 22:13:41 11° S
NOSS 3-4 (A) 4.1 22:02:55 10° WSW 22:08:20 56° NNW 22:14:29 10° NE
NOSS 3-4 (C) 4.1 22:03:01 10° WSW 22:08:25 57° NNW 22:14:35 10° NE
Cosmos 2237 Rocket 4.5 22:05:57 10° WNW 22:09:09 16° W 22:12:21 10° SW
Cosmos 407 Rocket 4.3 22:11:56 14° SSE 22:15:42 33° ESE 22:20:15 10° NE
SWAS 4.3 22:12:04 10° NNW 22:16:10 81° ENE 22:19:28 15° SE
Cosmos 1818 4.2 22:11:21 10° WSW 22:16:45 62° NW 22:22:12 10° NE
Ariane Rocket 4.3 22:12:22 10° SSW 22:16:56 33° W 22:21:31 10° NNW
Terra 4.3 22:17:28 10° WSW 22:19:39 13° W 22:21:49 10° WNW
ATLAS 3B R/B 4.2 22:14:16 10° NW 22:21:43 43° NNE 22:29:08 10° E
CZ-2C R/B 4.4 22:19:05 10° NNE 22:23:21 38° E 22:26:36 16° SSE
CZ-4C R/B 3.3 22:21:50 10° NNE 22:24:59 42° E 22:27:02 18° SSE
Cosmos 540 Rocket 3.8 22:20:51 10° NNW 22:25:57 61° ENE 22:30:18 14° SE
IRIDIUM 104 4.4 22:22:09 14° S 22:26:37 68° E 22:31:49 10° N
Okean 1-7 4.0 22:24:54 16° SE 22:27:36 31° E 22:31:15 10° NNE
USA 305 2.1 22:24:32 10° WSW 22:28:16 89° NW 22:31:14 10° ENE
Cosmos 1862 Rocket 4.0 22:26:30 16° SSE 22:29:47 48° E 22:34:02 10° NNE
Lacrosse 4 Rocket 3.8 22:28:04 10° WNW 22:30:01 13° WSW 22:31:59 10° SW
Cosmos 1269 Rocket 4.1 22:26:14 10° SSW 22:31:31 87° WNW 22:36:50 10° NNE
IRIDIUM 114 4.3 22:31:17 14° S 22:35:45 80° E 22:41:00 10° N
NOSS 3-1 (A) 4.1 22:31:16 10° NW 22:38:03 76° NE 22:46:27 10° SE
MetOp-A 3.7 22:36:44 17° SSE 22:40:26 82° ENE 22:44:54 10° NNW
Cosmos 1844 Rocket 3.5 22:37:08 16° SSE 22:40:57 34° ESE 22:46:01 10° NE
Aureole 3 Rocket 2.6 22:38:23 10° N 22:41:29 60° ENE 22:43:51 20° SSE
Cosmos 468 Rocket 4.3 22:36:22 10° NNW 22:41:30 60° ENE 22:45:48 14° SE
ATLAS 2AS CENTAUR R/B 4.1 22:40:58 14° SE 22:44:36 20° ESE 22:49:24 10° ENE
IRIDIUM 103 4.3 22:40:25 14° S 22:44:54 88° W 22:50:10 10° N
ARIANE 5 R/B 2.6 22:41:46 18° SSE 22:45:05 86° ENE 22:49:36 10° NNW
ASTEX 1 3.4 22:43:43 10° N 22:48:43 81° E 22:52:38 16° S
Cosmos 1844 4.5 22:45:20 17° SSE 22:48:55 34° ESE 22:53:53 10° NE
SJ 16-02 3.5 22:47:27 10° ESE 22:49:24 13° E 22:51:25 10° ENE
NOSS 2-1 (D) 3.7 22:46:35 10° NW 22:49:49 55° NE 22:53:56 10° ESE
SeaSat 1 3.3 22:52:39 10° ESE 22:57:20 47° NE 23:02:02 10° NNW
USA 290 3.7 22:57:55 10° SW 23:00:55 36° WNW 23:03:56 10° NNE
SL-16 R/B 4.1 23:01:08 10° WNW 23:04:55 19° W 23:08:42 10° SW
Landsat 5 3.6 23:01:49 10° NNE 23:06:05 62° ESE 23:08:50 20° S
Cosmos 1072 Rocket 4.5 23:00:17 10° NNW 23:06:29 85° W 23:11:12 18° S
Cosmos 1763 Rocket 3.7 23:02:24 10° NNW 23:07:27 57° WSW 23:11:00 19° S
Cosmos 2227 Rocket 4.1 23:08:17 10° W 23:13:13 30° NW 23:18:12 10° NNE
Cosmos 2263 Rocket 3.3 23:10:01 10° WSW 23:15:26 45° NW 23:20:55 10° NNE
Cosmos 1782 Rocket 4.3 23:11:52 10° N 23:16:07 44° ENE 23:19:18 16° SE
Cosmos 1703 Rocket 4.0 23:14:37 21° SSE 23:17:15 47° E 23:21:24 10° NNE
OPS 6432 4.2 23:14:05 10° NW 23:17:26 69° SW 23:19:11 24° SSE
Cosmos 1892 2.8 23:16:18 18° SW 23:18:13 47° WNW 23:21:10 10° N
NOSS 2-1 (C) 3.1 23:14:58 10° NW 23:18:19 85° NE 23:21:55 14° SE
Cosmos 2228 Rocket 3.3 23:14:58 16° SSW 23:18:31 66° WNW 23:22:56 10° N
Spot 4 4.0 23:15:15 20° S 23:18:36 67° WSW 23:23:26 10° NNW
Cosmos 1833 Rocket 3.9 23:14:33 10° NNW 23:19:50 39° NE 23:25:05 10° ESE
Cosmos 1271 Rocket 2.8 23:17:59 24° S 23:19:57 56° E 23:23:31 10° NNE
Cosmos 1707 Rocket 4.1 23:19:50 14° SSW 23:23:23 53° WNW 23:27:37 10° N
NOSS 2-1 (E) 3.2 23:20:01 10° NW 23:23:24 85° NE 23:27:08 13° SE
Cosmos 1943 4.3 23:20:42 10° NW 23:25:44 33° WSW 23:29:29 16° SSW
Meteor 2-5 Rocket 4.4 23:21:54 18° SSE 23:26:03 47° E 23:31:43 10° NNE
USA 307 3.2 23:24:56 24° S 23:26:27 33° SE 23:30:03 10° E
Cosmos 1140 Rocket 4.5 23:26:22 10° SW 23:31:17 44° NW 23:36:13 10° NNE
SL-4 R/B 2.0 23:27:38 10° WSW 23:31:40 55° SSE 23:35:33 10° E
ALOS 2 3.0 23:35:17 21° S 23:38:03 55° W 23:42:23 10° NNW
Cosmos 2344 4.5 23:36:05 10° NW 23:43:45 45° WSW 23:51:44 17° S
Tsikada Rocket 4.2 23:39:32 19° S 23:44:03 63° E 23:50:16 10° NNE
Cosmos 1603 4.3 23:39:29 10° NW 23:44:44 41° WSW 23:48:17 19° S
USA 59 Rocket -0.1 23:44:09 10° NW 23:47:33 54° SW 23:50:22 20° SSE
Meteor 2-17 Rocket 4.5 23:46:15 19° S 23:50:38 72° E 23:56:42 10° NNE
Cosmos 676 Rocket 4.2 23:47:16 20° S 23:50:49 61° ESE 23:56:00 10° NNE
Cosmos 2082 Rocket 4.4 23:46:59 10° NNW 23:51:38 25° NE 23:56:18 10° E
Cosmos 1908 Rocket 4.1 23:50:27 10° NNW 23:54:38 46° W 23:57:19 20° SSW
USA 305 2.3 23:53:41 10° W 23:56:58 59° N 23:59:20 10° E
